Starlink 5702

operational
NORAD ID: 55622 Int'l Des: 2023-020 Owner: SPXS Country: US Constellation: starlink
LEOCIRCULAR

Starlink 5702について

説明を読み込み中...

リアルタイム位置

3D地球を読み込み中...

次回通過

高度履歴

Altitude vs Time

uPlot chart will show altitude changes over time

軌道要素

1 55622U 23020BF 25307.72149112 .00000151 00000-0 26254-4 0 9991
2 55622 43.0051 315.8666 0001117 263.2825 96.7890 15.02535475150123
Epoch: Nov 3, 2025 • Age: 13 hours

現在のステータス

高度 561.0 km
速度 7.59 km/s
衛星直下点 34.07°N, 139.53°W
打ち上げ日 Feb 12, 2023
運用期間 2.7 years
タイプ internet

技術仕様

分類 Payload
質量 305.00 kg
乾燥質量 290.00 kg
総質量 305.00 kg
長さ 0.20 m
直径 2.80 m
スパン 9.00 m
形状 Box + pan
製造者 SPXS
バスタイプ Starlink
フェーズステータス In Orbit
所有者/国 SPXS/US

大規模コンステレーション

Loading constellations...